Weather in Bryandino

Russia / Ulyanovsk Oblast     54°22′58″N   49°22′18″E
В апреле 2022 года жителям России запретили посещать сайт meteo.paraplan.net по решению Генеральной прокуратуры. Аудитория сайта уменьшилась в 10 раз. Владельцы сайта не видят смысла в поддержке погодного сервера в таких условиях. Сайт будет закрыт в октябре.
temp.,
°C
wind,
m/s
gust,
m/s
humid.,
%
clouds,
%
prec.,
mm/h
press.,
hPa
HPBL,
m
25 september, sun
sun2501:00+11sw2574100 0.0 1011220
04:00+10ssw3473100 0.0 1011144
07:00+10ene1173100 0.0 100914
10:00+12ene2263100 0.0 1008426
13:00+13nne2257100 0.1 10061001
16:00+13nne3360100 0.1 1005906
19:00+10ene1174100 0.0 100411
22:00+11ssw2672100 0.0 1004268
26 september, mon
mon2601:00+10sw41079100 0.0 1003451
04:00+8sw488655 0.1 1004304
07:00+8sw3788100 0.3 1005491
10:00+8ssw3585100 0.7 1006583
13:00+10s337694 0.2 1008674
16:00+11ssw2367100 0.5 1009786
19:00+8ssw228291 0.1 101026
22:00+9ssw138686 0.3 101197
27 september, tue
tue2701:00+7nw229210 0.1 101222
04:00+6nnw229389 0.1 101418
07:00+6wnw009086 0.0 101511
10:00+10sw127567 0.0 1016306
13:00+11wsw337033 0.3 1017715
16:00+13w125923 0.5 10171080
19:00+10se117384 0.2 101811
22:00+8ese238215 0.2 101838
28 september, wed
wed2801:00+8ese3684100 0.0 1018182
04:00+8e2494100 2.7 1018185
07:00+8ese4993100 1.4 1017478
10:00+8ese51192100 1.7 1017665
13:00+8ese51091100 0.6 1017619
16:00+8ese61193100 1.4 1017536
19:00+8ese61294100 2.8 1016573
22:00+8ese71394100 3.4 1016502
29 september, thu
thu2901:00+8ese71494100 1.0 1016522
04:00+8e71493100 1.1 1015530
07:00+7e71493100 0.4 1015506
10:00+7e71493100 0.8 1015504
13:00+9e61289100 0.0 1015591
16:00+8e61289100 0.1 1017496
19:00+7e71390100 0.4 1019441
22:00+6ese6139291 3.4 1020453